Powrót do katalogu

FENGYUN 1C DEB

AktywnySSO
NORAD 32128·DEBRIS·🇨🇳 China

Wystrzelony May 10, 1999 z Taiyuan Satellite Launch Center

Loading…

Następne Przeloty (najbliższe 24 godziny)

TLE

ŚwieżeSource: Space-Track

Epoka: Sep 11, 2026, 20:39 UTC

1 32128U 99025CRW 26254.86045606  .00000779  00000-0  32092-3 0  9997
2 32128  98.9983 300.4421 0395256 192.9475 166.1304 13.94833752667921

Śledź FENGYUN 1C DEB w czasie rzeczywistym z AllMySat

Download on the App Store